RH
75 79 79 79 81 84 87 89 89 89 90 91 92 92 88 81 80 79 73 76 78 78 74 69 71 74 72 68 74 66 54 56 55 61 59 45 50 58 50 49 52 53 51 44 52 54 53 56 58 53 36 27 24 23 24 26 25 24 24 24 25 26 30 36 38 36 34 34 37 40 42 45 45 44 40 35 36 43 44 39 39 45 49 50 54 56 58 57 57 59 61 62 60 61 62 57 53
69 71 73 75 78 82 84 85 87 86 86 92 99 94 86 85 85 80 71 72 72 75 72 66 67 70 71 70 73 68 61 62 64 60 44 40 50 51 45 46 50 52 49 44 51 54 51 53 56 48 31 25 23 23 25 25 25 25 27 27 29 31 34 36 34 33 32 32 32 34 37 42 45 45 42 38 37 40 43 40 41 46 48 49 53 55 57 56 56 58 59 61 62 63 62 57 55
66 66 67 70 71 77 81 82 85 81 84 96 99 93 93 89 80 74 69 67 69 74 69 62 64 66 68 69 68 66 64 63 69 58 34 48 51 37 36 41 48 49 46 43 47 55 54 52 53 43 28 24 23 24 25 26 28 30 32 33 33 34 34 33 32 33 31 29 28 28 30 34 40 44 45 44 42 43 45 44 45 49 49 50 53 55 55 54 54 55 57 59 60 62 61 59 57
62 63 64 65 69 74 79 81 83 84 91 100 98 94 96 87 77 71 67 66 70 77 75 69 64 67 72 67 62 57 58 56 62 50 32 56 51 28 31 33 40 42 41 41 44 53 55 54 50 38 26 23 23 24 26 29 32 33 34 34 34 35 34 32 33 32 30 28 27 27 27 29 32 38 42 44 45 46 47 47 48 51 51 51 52 53 53 53 54 55 57 59 60 62 63 61 58
56 59 64 67 73 73 75 80 84 92 97 100 96 91 91 89 84 76 72 71 74 80 83 77 68 71 72 64 59 51 51 46 44 41 33 52 51 31 29 29 33 35 35 37 43 49 52 54 46 34 24 22 24 25 27 31 33 33 33 34 36 37 35 33 33 31 30 29 28 30 31 31 29 30 33 36 40 44 48 49 49 51 52 53 52 52 52 53 55 57 58 60 61 62 65 63 60
53 57 64 69 77 75 74 81 90 94 94 98 95 82 85 92 88 82 77 74 77 82 83 79 72 72 67 60 58 50 52 45 36 38 34 42 51 40 31 31 31 32 32 33 41 46 45 46 40 29 22 22 24 26 28 31 34 34 33 33 35 37 36 34 33 32 31 31 32 33 33 33 31 28 28 29 30 35 45 51 51 51 52 53 54 53 53 54 56 58 58 60 62 62 65 65 64
56 61 66 73 78 75 71 72 78 81 83 90 89 77 77 82 84 87 78 74 81 82 83 80 74 69 62 60 62 60 59 51 39 40 38 39 50 49 38 33 32 32 31 30 39 44 41 38 33 26 23 23 24 26 27 30 33 34 33 32 34 36 36 34 33 33 33 33 32 32 32 31 31 29 28 29 27 26 35 45 51 54 54 55 55 54 52 54 56 58 58 60 62 62 65 66 65
58 62 67 76 74 65 64 62 63 71 77 77 76 71 71 73 77 85 77 77 85 85 85 80 75 71 68 73 74 76 73 59 49 47 44 40 45 51 45 36 33 33 29 30 37 43 43 37 31 26 24 25 24 26 27 28 30 32 32 31 32 34 35 34 33 32 32 32 31 30 30 29 29 29 28 31 31 27 27 33 42 50 54 54 56 55 53 54 56 58 59 60 62 64 66 69 68
56 61 67 73 68 60 61 62 61 67 72 70 70 68 67 71 72 77 77 79 83 85 86 82 81 72 74 87 82 82 79 60 53 53 50 44 43 48 48 40 34 34 29 28 34 42 45 38 33 27 25 26 26 26 27 28 29 30 31 31 32 33 34 33 33 32 31 31 30 29 29 29 28 28 31 33 36 34 29 29 33 42 50 51 53 55 53 55 57 58 59 61 63 64 67 72 73
56 61 69 68 64 63 63 64 65 64 64 64 70 70 66 67 70 76 78 75 74 78 83 86 86 74 76 87 80 82 80 63 51 52 56 49 43 44 47 45 41 40 32 26 31 40 45 42 35 28 26 27 29 29 30 31 30 31 30 31 31 31 32 31 31 30 30 30 29 29 28 29 28 29 35 37 39 38 33 32 33 42 52 49 47 52 52 54 57 58 60 62 64 65 65 71 74
58 62 70 67 66 66 63 62 63 66 65 64 67 71 73 71 73 79 79 75 73 75 78 84 86 81 82 77 70 79 84 78 62 52 57 54 46 42 44 46 48 51 41 27 28 35 40 41 35 28 28 29 32 32 33 33 32 32 32 31 31 30 30 29 30 28 29 29 28 28 28 29 27 29 34 38 39 37 35 38 38 46 55 49 43 47 50 53 56 58 60 63 64 65 65 67 73
61 64 71 69 69 69 64 59 59 65 68 67 67 68 73 75 76 77 76 75 77 77 75 81 86 86 83 69 66 79 86 85 75 62 59 56 51 46 46 48 51 58 53 34 26 31 35 36 32 26 28 31 33 34 33 34 33 32 32 31 31 30 30 29 29 28 28 28 28 28 27 28 27 27 31 36 38 37 40 44 46 49 53 49 42 46 51 52 56 59 61 64 65 65 66 66 70
63 64 70 68 68 68 63 59 58 62 64 65 67 66 66 69 72 73 73 72 74 77 75 77 84 84 77 69 74 87 87 78 75 73 65 56 52 50 50 51 52 59 60 44 27 27 31 31 29 24 27 32 33 34 34 34 33 33 33 32 32 31 31 30 29 29 29 29 28 28 28 28 28 27 30 37 38 39 45 48 52 55 53 51 44 44 52 53 56 59 62 66 66 65 66 67 67
62 60 65 67 64 59 58 60 57 54 58 65 68 69 67 65 67 66 67 70 72 77 78 76 80 81 75 71 74 84 85 73 70 73 69 61 53 52 55 55 53 57 60 53 33 24 28 28 27 24 25 31 33 34 34 34 34 34 34 33 34 33 32 32 31 31 30 30 29 28 28 28 28 27 34 45 42 41 47 48 55 61 56 54 46 44 50 52 56 59 62 67 67 68 67 68 69
57 57 58 61 55 47 52 60 57 50 54 62 65 70 70 66 66 66 66 70 73 75 79 81 81 81 78 74 68 76 83 78 76 76 75 70 60 56 60 61 57 56 58 57 43 26 25 27 26 24 23 27 31 33 33 34 34 34 35 34 35 34 34 33 33 32 32 31 30 29 28 29 28 28 40 52 48 44 47 47 55 62 57 54 48 46 51 53 56 58 63 69 69 71 71 69 70
53 58 52 53 48 39 46 55 55 52 54 58 61 67 68 66 67 68 70 73 74 74 78 82 83 80 79 81 77 82 87 84 85 84 84 80 71 62 60 64 60 59 57 56 54 35 24 25 27 26 23 24 27 31 32 32 32 33 34 34 35 35 35 34 34 34 33 32 31 30 28 29 28 29 44 54 49 46 47 46 52 58 56 55 51 51 55 53 57 59 62 68 69 72 73 72 71
58 63 50 47 42 34 41 49 52 53 55 58 61 67 71 68 69 70 69 71 72 73 77 76 77 79 78 79 78 82 88 87 87 87 89 86 79 66 57 58 59 60 59 56 59 48 30 23 25 27 24 23 24 27 30 31 31 32 33 34 35 35 35 34 35 34 34 34 32 31 28 29 28 29 44 53 48 46 47 46 48 52 54 57 56 58 60 55 57 60 61 64 67 72 73 74 74
62 61 44 38 34 32 40 44 47 51 54 57 60 68 72 68 67 71 72 72 74 75 76 74 73 77 77 72 69 73 83 85 86 89 90 88 83 71 57 57 57 57 59 58 58 56 43 28 24 26 26 24 24 26 28 29 31 31 33 33 34 35 35 35 35 34 34 34 33 32 30 29 28 29 39 48 47 45 49 49 48 48 49 55 58 63 62 57 59 59 60 61 65 71 73 73 75
52 46 32 31 30 33 40 41 43 47 51 53 58 64 67 68 68 71 74 72 74 74 72 71 71 76 75 70 71 75 80 79 83 92 91 88 87 77 62 58 58 56 59 60 57 58 54 39 27 24 26 26 24 25 26 28 30 31 32 33 34 34 35 35 34 34 34 33 32 32 31 29 28 29 35 44 47 47 49 50 51 46 45 50 55 66 65 59 61 60 62 62 64 69 72 73 72
40 33 23 28 31 32 38 40 40 43 48 51 58 64 65 70 72 72 73 68 70 72 68 67 71 81 77 69 73 75 78 80 81 85 87 88 89 84 74 66 62 60 63 63 59 61 61 52 39 28 25 26 26 26 25 27 28 30 32 32 34 34 34 35 34 34 33 32 32 32 32 31 31 33 38 44 48 50 50 49 51 47 44 45 49 62 66 63 65 63 65 65 65 67 69 74 71
32 29 22 25 30 31 34 38 40 42 49 51 57 63 62 67 72 71 69 67 70 70 67 66 68 82 85 75 70 68 77 86 82 79 83 89 88 86 84 77 69 65 65 62 59 62 64 60 53 43 32 27 26 26 26 27 28 29 30 32 32 33 34 34 34 33 33 32 32 34 34 35 37 41 43 45 47 51 52 51 51 49 47 45 46 54 61 67 70 66 67 67 66 66 67 71 71
26 29 26 23 27 29 32 38 40 42 48 52 56 58 59 62 66 67 64 64 67 65 64 64 64 74 85 83 70 68 80 86 82 78 80 86 85 86 86 79 73 68 65 63 61 63 65 63 58 54 48 41 34 30 28 27 27 28 29 30 31 32 33 33 33 33 32 32 32 36 40 44 46 47 48 48 48 50 52 53 52 51 50 49 48 50 55 64 69 68 70 70 67 66 67 69 70
20 28 29 24 26 28 33 40 40 42 46 49 52 54 57 59 58 60 59 57 62 65 65 64 66 72 81 82 72 73 84 84 82 76 73 78 82 85 84 77 74 70 65 64 63 62 61 59 57 56 56 55 51 44 38 34 34 35 35 36 37 37 33 32 32 32 32 31 33 38 46 50 49 50 51 50 50 50 50 52 53 53 51 52 53 53 54 55 59 66 71 73 71 68 68 68 70
17 24 28 26 28 29 36 43 41 44 45 44 46 49 55 57 55 58 57 53 56 62 65 65 67 73 79 79 73 77 84 81 82 78 72 76 79 81 79 77 77 73 70 68 66 63 57 53 53 54 54 57 58 54 50 47 47 47 46 46 46 43 36 33 32 32 32 31 35 44 51 54 52 51 48 46 49 49 49 50 52 54 53 55 57 57 56 53 51 60 69 74 74 72 69 68 71
19 21 24 29 31 33 41 45 44 45 44 43 43 45 51 53 54 58 58 54 53 54 62 65 65 69 75 80 79 80 81 77 80 83 81 78 76 77 77 76 77 76 76 74 72 69 59 51 49 50 50 53 54 54 54 53 52 51 49 49 49 47 42 37 34 33 33 32 36 44 52 52 49 47 42 43 48 49 51 53 53 55 58 59 59 58 58 59 52 54 66 74 75 74 70 69 71
21 22 24 30 33 36 44 48 47 46 47 46 39 39 47 50 51 53 56 57 54 53 60 65 63 64 68 73 76 78 80 80 80 84 85 82 80 82 81 77 73 75 77 75 74 72 62 52 49 48 45 45 47 51 53 53 53 52 50 50 50 49 46 42 38 36 34 32 35 39 44 45 43 42 41 45 50 52 55 58 58 58 59 61 63 61 61 65 59 52 61 72 75 73 70 71 70
22 25 28 34 36 37 43 46 45 44 50 49 34 33 41 45 46 47 52 57 57 56 59 64 63 61 64 68 71 72 76 79 80 81 84 84 83 83 83 79 73 73 76 74 72 71 62 52 50 47 40 37 40 45 50 52 52 52 50 50 51 51 48 45 42 41 39 36 37 39 42 44 44 43 44 48 53 58 59 60 61 61 60 60 62 64 64 68 66 59 57 64 74 72 69 73 71
22 24 29 38 39 40 44 44 44 43 47 48 36 31 38 41 43 44 47 53 58 60 61 64 64 61 63 66 68 70 71 73 76 80 84 84 82 81 82 80 76 75 76 74 69 69 65 55 51 50 44 40 39 45 52 55 56 56 54 51 50 50 49 49 49 49 49 46 46 45 46 47 48 48 50 55 60 63 63 62 63 62 63 62 60 63 66 68 70 67 58 60 72 74 73 75 71
28 26 28 39 45 46 48 46 47 46 43 46 41 34 36 39 41 42 44 51 57 61 63 65 67 66 63 62 63 65 67 69 70 72 77 82 84 86 85 82 81 79 79 75 68 67 69 65 62 62 59 50 45 48 53 56 59 61 60 58 56 55 55 55 56 57 57 55 55 54 54 55 55 55 57 61 64 67 68 67 65 63 64 64 62 61 65 69 72 71 62 61 69 73 76 75 69
31 33 29 38 50 49 49 48 47 48 43 42 41 36 35 36 38 42 43 49 54 58 62 62 63 64 62 63 63 63 65 67 69 68 70 76 80 82 82 83 84 83 82 78 72 68 68 72 74 75 73 66 60 59 57 56 60 63 63 63 63 62 61 61 62 63 62 61 62 62 63 64 64 64 64 66 70 73 75 74 70 67 66 67 64 61 63 68 73 72 66 64 67 69 72 72 70
29 38 35 36 43 42 48 54 47 45 43 40 39 37 38 37 37 43 44 48 51 53 60 62 62 63 61 63 64 66 69 70 70 69 68 71 73 73 77 82 83 85 85 82 80 74 69 73 76 77 77 77 76 73 69 66 65 66 66 66 67 66 66 66 66 68 69 69 69 70 70 70 70 70 71 73 76 79 81 79 76 72 71 70 65 61 62 66 72 74 69 66 68 68 68 69 71
33 37 42 41 36 31 44 58 52 48 46 43 43 40 40 40 39 43 46 48 49 49 57 64 64 63 63 62 63 69 73 72 72 71 69 69 70 69 73 78 81 85 87 85 87 84 78 76 73 72 73 75 78 79 80 78 75 73 72 71 70 71 72 71 72 73 74 76 77 79 78 76 74 72 72 72 73 75 76 76 76 75 75 73 67 62 62 65 69 72 70 66 66 68 67 67 70
38 34 40 41 33 27 39 57 61 60 54 46 46 42 38 39 39 42 45 47 49 48 53 61 61 60 63 63 64 69 72 72 72 72 71 70 70 68 69 72 77 81 84 85 87 84 82 79 74 74 75 75 77 80 83 84 84 84 82 81 79 79 79 78 78 78 78 80 82 84 84 81 77 72 71 70 69 68 69 71 74 75 75 75 73 67 63 63 66 71 72 66 65 69 69 66 69
37 38 39 36 32 26 32 48 57 63 59 46 43 42 37 37 38 40 44 45 47 50 53 58 57 55 60 64 63 65 67 68 68 71 72 71 70 69 68 69 72 75 78 83 85 83 83 83 80 81 80 79 79 80 83 84 85 87 87 86 84 82 81 80 80 79 78 78 79 81 82 80 77 74 72 70 68 66 67 69 71 74 75 75 75 70 66 63 64 73 75 68 66 70 70 67 67
29 34 35 37 35 26 26 35 43 52 53 43 40 40 35 34 34 35 38 42 44 47 51 55 54 52 58 65 65 63 64 65 66 67 68 68 69 69 68 67 67 69 71 76 80 80 83 84 82 82 80 79 80 80 81 81 79 79 78 76 76 75 75 76 76 75 75 73 72 72 73 73 73 73 71 69 67 66 66 67 69 70 71 73 72 69 68 65 64 72 76 70 67 70 68 64 64
20 22 27 34 33 27 28 32 36 43 43 40 41 41 37 35 35 34 35 41 45 45 48 51 52 51 52 61 67 66 64 63 64 64 61 62 63 64 65 64 65 67 68 71 73 75 76 77 78 79 79 77 78 80 79 78 74 70 70 70 70 72 72 72 72 72 72 72 70 70 70 69 69 69 69 68 67 66 65 66 68 67 67 69 70 69 68 65 63 68 73 72 71 73 70 65 62
18 22 27 30 28 26 32 37 41 43 41 41 43 44 45 47 49 46 43 42 44 46 47 47 50 52 51 59 69 68 64 61 62 62 59 58 58 59 60 60 61 64 66 68 70 72 73 73 75 78 79 77 75 75 74 73 71 70 70 71 72 74 75 74 74 74 73 72 70 69 69 69 69 69 69 68 68 67 65 65 66 65 65 65 67 70 69 66 64 66 70 72 73 73 73 69 65
17 24 30 29 26 27 34 38 38 42 42 40 43 45 46 54 61 55 48 45 44 46 47 45 48 53 56 62 70 69 65 60 59 60 58 56 56 56 57 57 58 58 59 62 64 67 71 73 76 78 78 77 75 73 71 70 70 71 72 73 76 77 77 75 73 70 68 67 67 66 67 70 71 71 70 69 68 67 65 63 64 64 64 65 66 69 70 69 66 66 69 72 71 71 74 74 68
17 24 28 30 31 36 47 43 32 37 42 39 42 43 41 53 63 56 49 49 48 49 50 46 47 52 55 58 63 67 69 65 59 57 56 58 58 55 55 54 55 56 54 55 57 57 59 62 63 66 70 72 72 73 72 69 68 68 69 71 73 72 71 68 64 62 61 62 65 66 67 69 71 70 69 69 68 67 65 64 64 63 63 65 66 66 66 68 66 66 69 70 69 69 74 77 74
20 25 26 30 31 35 46 45 36 38 42 40 40 41 42 52 59 54 51 52 51 51 50 47 47 50 52 55 56 59 70 74 64 56 56 62 63 60 62 57 53 56 53 50 53 54 54 55 55 56 59 60 61 64 63 63 64 66 67 66 63 61 61 61 59 59 60 63 66 66 66 67 68 68 68 68 68 66 66 65 64 63 65 65 65 65 67 67 65 67 71 70 67 66 70 75 76
17 23 23 26 28 26 30 34 36 38 40 40 40 43 47 52 56 53 52 54 53 50 50 51 51 50 52 57 53 47 60 73 67 60 60 64 65 65 68 63 57 56 54 51 50 51 53 53 54 56 57 56 59 62 61 62 62 59 60 59 55 55 56 58 61 61 60 63 64 63 62 64 65 67 68 68 68 67 68 68 67 65 65 64 63 66 70 70 67 67 70 70 66 66 70 71 71
18 24 20 19 23 26 28 29 33 37 39 37 38 46 53 56 56 51 49 55 59 59 57 55 54 54 55 61 61 53 58 70 69 64 64 65 64 64 66 66 64 58 57 61 53 49 57 60 60 63 63 57 59 66 67 67 63 57 58 59 55 56 60 62 63 63 62 64 65 61 59 60 61 64 67 68 68 68 68 68 69 68 65 64 63 66 70 72 70 69 68 68 66 66 68 68 67
20 22 18 18 22 26 27 27 31 34 36 36 34 41 55 58 50 45 49 55 63 69 69 67 66 63 60 63 66 64 65 67 65 64 65 64 62 63 63 60 59 51 49 54 46 42 56 66 65 61 58 55 59 71 72 65 61 57 58 57 48 51 62 64 62 62 64 66 68 64 59 59 59 60 64 66 66 66 68 68 68 67 65 64 65 66 69 70 69 68 67 67 67 67 66 66 64
12 12 18 23 24 24 22 24 31 31 33 39 37 37 48 51 42 48 60 60 64 71 72 72 72 73 76 75 69 68 71 67 62 62 63 62 58 55 51 44 43 41 38 37 32 32 38 44 46 42 43 46 49 57 57 51 50 48 50 49 41 41 52 59 61 65 67 67 67 66 63 62 59 59 63 67 66 63 65 66 66 67 67 66 66 66 68 69 67 66 66 66 67 68 69 69 70
9 12 20 24 22 21 22 27 32 30 33 43 45 42 48 49 43 53 59 51 51 56 57 55 50 55 70 82 81 73 73 71 65 63 61 58 51 44 39 38 41 40 34 27 23 24 25 26 30 30 32 35 33 33 34 34 34 32 34 36 35 39 46 52 53 56 61 62 61 62 64 62 59 60 63 67 67 63 63 64 63 64 65 66 67 67 68 69 69 68 67 67 66 67 71 73 74
16 20 22 25 27 25 27 34 32 29 35 41 41 40 51 59 50 47 45 36 35 40 46 50 45 43 49 67 85 81 74 74 68 63 58 50 43 40 40 43 46 39 27 19 16 17 19 21 24 25 25 25 24 24 24 24 23 22 23 23 23 28 34 39 40 43 51 53 53 55 58 58 57 58 59 61 62 62 63 65 64 63 62 63 66 68 70 70 70 69 68 68 66 66 70 73 75
21 25 27 31 38 37 37 36 28 31 38 37 36 34 43 58 53 42 39 35 33 35 43 49 49 51 48 57 79 83 76 75 66 56 49 44 42 44 46 49 47 34 20 15 14 14 16 19 21 22 22 22 22 21 20 20 19 18 18 17 17 17 19 21 23 28 34 35 37 41 44 47 50 52 53 56 59 60 62 64 65 65 64 64 65 65 67 68 69 70 68 67 66 64 68 73 75
19 22 28 34 40 39 38 33 28 39 43 36 38 35 35 45 42 37 38 38 39 41 44 44 46 58 61 62 77 81 76 75 71 59 46 43 47 47 50 53 42 26 16 15 15 14 16 18 20 21 21 21 20 20 18 17 16 15 16 16 16 16 16 16 15 16 17 17 20 22 22 26 32 34 35 39 46 53 59 63 66 68 67 66 67 67 67 68 68 70 70 69 68 66 68 74 77
19 21 25 31 36 33 34 36 35 43 45 37 36 32 31 37 33 31 36 39 46 52 53 50 53 68 69 65 75 77 71 69 68 60 48 45 50 50 53 51 33 18 16 17 15 15 16 17 19 19 19 19 18 17 16 15 15 16 16 16 17 17 17 17 17 16 15 15 15 15 14 14 16 17 17 18 23 30 38 47 55 64 69 67 65 66 70 70 69 69 71 72 75 74 70 72 77
17 21 23 28 34 36 41 46 43 46 47 41 36 30 32 36 33 34 37 42 53 62 64 61 63 71 67 65 76 75 66 62 59 58 56 53 51 53 54 41 23 17 17 16 15 15 15 16 17 17 17 17 17 17 17 16 16 16 15 16 15 15 15 15 15 14 14 14 13 13 14 13 13 12 12 12 12 13 16 20 28 42 59 69 68 65 67 70 69 68 69 70 74 76 71 68 72
12 16 15 18 24 30 39 45 47 50 48 41 36 34 35 36 35 35 35 42 56 63 65 68 72 74 68 71 81 78 70 65 61 62 64 60 57 57 51 31 17 16 15 14 16 15 15 15 16 16 16 17 17 17 17 16 16 15 15 14 13 13 12 11 11 10 10 10 10 10 10 10 11 11 11 11 10 10 10 10 12 20 38 55 62 65 68 68 68 68 67 68 68 70 70 67 69
10 10 8 11 14 15 24 34 35 37 45 46 39 35 34 33 35 37 34 37 49 59 63 68 76 78 75 76 78 77 73 67 64 66 66 65 65 63 50 29 15 13 12 12 15 15 15 15 14 15 14 14 15 14 15 15 14 13 13 12 12 12 11 11 10 9 9 9 8 9 9 9 9 9 9 9 9 9 9 9 10 13 22 34 46 57 62 62 63 67 70 71 70 69 68 68 70
10 10 7 10 13 13 21 33 30 33 53 58 47 42 37 34 35 37 36 37 45 55 60 65 74 78 75 74 72 72 71 65 64 70 70 69 71 64 46 28 17 12 10 11 13 14 15 15 15 15 14 13 13 13 12 12 12 12 12 11 11 11 11 11 11 11 11 10 10 10 9 9 9 9 9 8 8 8 8 9 9 11 16 23 32 40 44 47 54 62 68 72 73 71 68 67 69
10 10 9 11 15 15 20 34 41 53 71 64 50 48 41 36 40 37 36 40 46 55 61 68 77 77 74 73 72 70 69 65 65 69 69 71 72 58 36 23 17 13 12 12 13 14 13 14 15 15 14 13 12 12 12 12 11 11 11 11 11 11 11 10 10 10 10 10 10 10 10 10 10 10 9 9 9 8 8 9 8 9 11 13 17 21 28 36 45 53 60 64 67 71 72 70 68
8 8 10 13 17 17 17 25 34 54 77 69 53 53 44 35 39 37 35 37 44 56 65 71 78 77 74 74 74 71 67 64 65 68 68 72 71 50 28 22 19 15 14 12 12 13 13 14 14 13 13 12 11 11 11 11 11 11 11 11 11 11 10 10 10 9 9 9 9 8 9 9 9 10 9 9 9 9 9 9 9 9 9 9 10 12 17 23 27 33 41 48 55 63 68 71 71
8 9 12 13 16 17 16 20 21 39 72 72 58 59 49 32 30 30 31 35 42 52 58 65 75 76 73 72 73 71 66 64 67 70 70 74 70 48 28 24 20 17 17 16 14 13 12 13 12 11 11 10 10 11 11 11 11 11 11 11 11 11 10 10 9 9 9 9 9 9 8 9 9 10 10 10 10 10 10 9 9 8 8 8 9 10 12 13 14 15 17 26 43 56 60 64 67
8 10 14 13 14 15 16 22 19 29 60 72 71 70 46 25 27 28 29 35 41 47 50 55 67 72 71 71 71 70 68 68 70 72 73 73 63 43 29 26 23 21 23 25 26 21 14 13 12 10 10 9 10 10 10 11 11 11 12 11 11 10 9 9 8 8 9 9 9 10 10 10 10 10 10 10 10 10 10 10 10 9 9 9 9 10 11 11 12 13 11 14 27 40 48 52 53
8 10 14 14 15 15 19 28 24 21 36 49 60 61 36 22 29 29 30 37 41 48 51 51 60 67 68 70 70 69 69 69 71 73 74 66 49 33 27 27 25 27 32 38 41 34 21 16 14 13 12 10 11 11 11 12 12 12 13 11 11 10 9 8 8 8 9 10 11 11 11 11 11 10 10 10 10 10 10 10 10 10 10 10 9 9 9 9 10 13 15 16 19 28 38 46 44
Wind_Speed
19 16 14 12 10 9 8 6 6 7 8 9 8 7 9 9 10 10 11 10 10 10 9 10 12 16 22 26 25 19 14 11 9 9 12 18 20 17 17 21 20 18 17 17 19 19 19 20 20 19 21 22 22 23 22 22 21 20 19 18 17 16 15 15 15 14 14 14 14 14 13 12 11 11 12 13 14 14 14 14 14 13 13 12 12 12 11 10 9 9 8 7 6 6 5 5 6
20 18 15 14 12 10 10 9 7 8 9 10 10 9 11 11 10 10 10 10 11 10 8 9 10 16 21 23 22 16 13 13 9 6 13 21 21 19 19 20 20 17 16 17 19 19 19 19 19 20 21 22 22 23 22 21 20 19 18 18 17 16 15 15 15 15 15 16 17 17 16 15 14 13 13 13 13 13 13 13 13 13 13 12 12 12 11 10 10 9 9 7 6 6 5 5 6
21 20 18 16 14 13 12 11 9 9 10 10 12 12 12 13 12 11 12 12 12 10 8 9 10 15 16 17 18 14 14 14 11 10 17 21 19 21 21 21 20 17 16 17 19 20 19 19 19 20 22 22 22 23 22 21 20 19 18 18 17 16 16 15 15 15 16 17 18 19 19 18 18 17 16 15 14 13 12 12 12 13 13 12 11 11 11 10 9 9 9 8 6 5 5 6 6
21 20 20 19 18 17 14 14 12 10 10 8 10 12 13 14 14 13 14 14 13 11 11 11 10 12 8 9 14 13 15 14 12 14 18 20 17 20 22 21 21 18 17 17 18 20 20 19 19 20 22 22 23 22 22 21 20 20 19 19 18 16 15 14 14 14 16 17 18 18 19 20 19 19 18 17 16 13 11 11 12 12 13 12 11 11 11 10 10 9 9 8 6 5 5 6 6
21 20 21 21 21 20 17 16 17 16 13 8 8 9 11 12 12 13 14 14 13 10 10 9 9 10 6 8 12 13 16 16 18 19 18 21 19 19 21 21 21 19 18 18 18 20 20 20 19 20 21 22 23 22 22 21 21 20 19 18 17 15 14 13 13 14 15 16 16 17 17 18 19 19 18 17 17 15 13 11 11 11 11 11 11 11 11 11 10 9 9 9 8 5 5 5 6
23 22 23 23 22 22 21 19 20 19 15 10 10 8 8 8 9 13 14 12 12 10 8 7 8 9 9 10 11 13 16 17 21 20 17 20 20 18 19 20 21 20 19 19 20 20 21 21 20 21 22 22 23 22 22 21 20 20 19 18 16 14 13 12 12 12 13 14 14 14 15 16 17 17 17 17 16 16 15 13 11 10 9 10 11 10 11 11 10 9 9 10 9 7 5 5 6
25 25 24 23 22 22 22 22 20 17 13 11 12 9 6 6 6 11 13 11 10 9 7 7 9 9 9 11 11 13 15 17 21 20 18 20 21 19 19 20 19 20 20 20 21 22 22 22 22 22 23 23 23 22 22 21 20 19 18 17 15 13 12 11 11 11 11 12 12 13 13 14 15 15 16 16 16 16 16 14 12 10 9 9 9 9 10 11 11 10 10 10 10 8 5 4 5
25 26 25 21 20 21 21 22 22 17 13 12 11 9 7 6 5 7 10 12 11 10 9 8 10 9 9 11 12 14 13 16 21 21 19 19 20 19 19 19 18 19 19 20 21 23 23 23 23 23 24 24 24 23 22 21 19 18 17 16 15 13 11 10 10 10 10 11 12 12 13 13 14 14 15 15 15 15 15 14 13 12 10 8 8 8 9 10 11 11 10 10 10 9 6 3 4
24 25 24 19 18 23 22 21 22 18 14 11 10 10 8 7 5 5 8 10 10 9 9 9 9 10 11 12 13 14 12 16 21 21 18 18 18 18 19 18 17 17 18 19 21 23 23 23 24 24 24 24 24 22 21 20 19 18 17 15 14 12 10 9 8 8 9 9 10 11 12 12 13 14 14 14 14 15 15 14 14 13 11 8 7 7 8 9 10 10 10 9 8 8 7 4 4
23 24 22 19 20 23 23 20 20 17 14 12 11 12 10 8 6 5 6 7 8 8 7 8 8 10 13 13 14 14 12 15 19 20 19 18 18 18 19 19 17 15 16 18 19 21 23 23 23 23 24 24 23 22 21 19 18 17 16 15 14 12 10 8 7 7 8 8 9 10 11 12 13 14 14 14 14 15 15 14 14 14 13 10 8 8 8 8 8 9 9 8 7 6 7 6 4
21 22 20 21 22 22 21 20 18 15 13 12 11 11 10 8 6 6 6 6 7 7 7 8 8 11 14 13 12 12 12 14 15 18 20 19 18 17 17 19 19 16 15 16 18 20 21 22 23 24 24 24 23 22 20 19 18 17 16 14 13 11 9 8 7 6 7 7 8 9 11 12 13 14 14 14 14 14 15 14 14 14 14 12 10 9 8 8 8 9 9 9 6 5 6 7 5
19 20 18 21 23 20 19 19 17 15 13 12 10 9 8 7 6 6 5 5 6 7 7 8 10 13 14 12 12 13 14 14 13 16 19 20 19 17 17 18 19 18 16 16 17 19 20 22 23 24 24 24 23 22 20 19 17 16 15 14 12 10 9 8 6 6 6 6 7 9 10 11 13 14 14 14 14 15 14 14 14 14 14 13 11 10 9 8 8 9 10 9 7 5 5 6 4
17 16 14 17 20 18 18 18 16 13 13 13 11 9 7 6 5 5 4 4 6 7 8 9 11 12 12 11 14 17 17 15 14 15 17 19 20 19 18 18 18 18 17 16 18 18 19 21 23 25 26 25 24 23 21 19 17 15 14 12 11 10 8 7 6 5 6 6 6 8 9 10 11 13 13 13 14 14 14 14 14 14 14 12 10 9 9 9 10 10 10 10 8 6 5 5 4
14 13 9 12 17 18 18 17 14 11 11 11 10 9 7 5 4 4 4 4 4 6 8 9 10 10 11 13 15 16 17 16 17 16 15 17 18 18 17 17 18 18 17 17 17 18 19 20 22 24 25 25 24 23 21 18 16 14 13 11 9 8 7 6 5 4 5 5 5 7 8 9 11 12 13 12 13 14 13 13 14 14 14 12 10 9 9 9 10 11 11 10 9 7 7 6 4
11 10 6 8 15 19 18 15 13 12 10 9 9 8 7 7 6 6 6 5 4 5 7 8 10 10 10 13 15 15 16 18 19 17 15 16 17 17 17 17 17 17 17 17 16 18 18 19 20 21 23 23 23 21 20 18 15 14 12 10 9 7 6 5 4 3 4 4 5 6 8 9 10 12 12 11 12 13 13 13 14 14 14 13 12 10 10 10 10 11 11 11 9 7 8 8 6
9 7 4 9 16 19 17 12 12 12 11 9 8 8 7 8 8 7 7 6 4 4 6 8 9 9 10 13 15 16 19 20 19 19 17 16 16 17 17 16 16 16 16 16 15 16 17 18 18 20 21 21 21 20 18 17 15 13 11 10 8 7 5 4 3 2 2 3 5 6 7 8 9 11 10 10 11 12 12 13 13 14 14 13 13 12 11 11 10 11 11 11 10 7 7 8 6
6 1 2 10 18 18 16 11 12 13 11 9 8 8 7 7 8 6 6 6 5 3 4 6 6 5 7 9 13 16 19 20 19 20 19 17 16 16 17 16 14 15 15 15 14 14 15 16 17 18 20 20 20 20 19 17 15 13 12 10 9 7 6 4 2 0 1 3 4 5 7 7 8 9 9 9 10 10 11 11 12 13 13 12 12 12 11 11 10 11 11 11 11 9 7 6 6
3 6 3 12 18 17 14 10 12 12 10 9 8 8 7 7 7 6 6 6 5 3 3 3 3 2 4 7 10 14 17 18 19 20 20 17 15 15 16 15 13 13 13 13 13 13 13 14 16 17 18 19 19 19 19 17 16 14 13 11 10 8 7 5 3 2 2 3 4 6 7 7 8 9 8 8 9 9 9 10 11 13 13 12 12 12 11 11 11 12 12 11 11 10 8 6 4
11 5 7 15 15 15 13 11 12 12 11 10 9 8 6 7 8 7 7 6 7 5 3 4 3 2 7 9 12 15 16 16 17 19 18 16 15 14 13 14 12 11 11 11 11 12 12 13 14 15 16 17 17 18 18 17 16 14 13 12 11 9 8 6 5 4 4 5 5 6 7 8 8 8 8 8 8 7 7 8 10 11 12 11 12 12 11 11 10 12 13 12 12 11 9 7 5
8 1 10 15 12 13 14 12 13 13 13 10 9 9 8 8 8 8 8 7 7 5 4 6 7 5 8 12 13 15 15 16 17 16 15 15 15 13 11 11 11 11 10 10 10 11 11 12 12 14 15 15 16 16 16 16 16 15 14 13 12 10 9 8 7 6 6 6 7 7 8 8 8 8 7 7 8 6 6 6 9 10 10 11 12 12 11 11 10 10 11 12 13 12 10 8 6
5 6 11 14 11 11 14 14 14 15 13 11 10 10 10 10 9 8 8 7 8 7 5 6 8 8 8 13 13 12 14 17 16 15 15 15 15 13 11 11 11 11 11 10 11 10 10 11 11 12 13 14 15 15 15 16 16 15 15 14 13 12 11 10 9 8 8 8 8 8 8 9 8 8 7 8 8 6 5 5 7 8 9 10 11 11 11 11 10 10 10 12 12 12 10 9 7
5 10 12 14 9 9 14 15 15 15 14 13 13 12 12 12 11 10 9 8 9 8 6 6 8 8 6 10 11 10 15 16 15 15 15 15 15 14 12 12 12 12 11 10 10 10 10 10 10 10 11 12 13 14 15 15 15 15 15 14 14 14 13 12 11 10 10 10 10 9 8 8 7 7 7 8 9 7 6 6 7 8 10 10 10 10 10 10 10 10 10 11 11 11 10 9 8
1 9 11 10 8 9 14 16 16 15 14 14 13 13 13 12 12 12 9 9 10 9 7 6 7 6 4 6 8 9 13 14 14 14 14 15 17 15 13 12 11 11 11 11 10 10 10 10 10 10 11 11 12 12 13 14 14 14 14 14 14 14 14 13 12 11 11 11 11 10 8 7 7 7 7 8 8 7 6 5 6 8 10 11 10 10 10 10 10 10 10 10 10 10 10 9 8
4 8 10 7 8 10 14 16 16 14 13 14 13 14 14 12 12 12 10 10 11 11 9 8 9 6 1 4 8 9 11 12 12 14 16 17 18 16 14 13 11 10 10 10 10 10 10 10 10 10 11 11 11 11 11 12 13 13 13 13 13 13 13 13 13 12 12 12 11 10 9 8 7 7 8 9 9 8 7 6 6 7 9 10 10 10 11 10 9 9 9 8 8 9 9 9 9
4 7 10 8 9 10 13 15 16 15 13 14 13 13 14 13 12 12 12 12 12 11 11 10 10 8 3 2 5 8 9 10 10 14 17 17 15 13 12 11 11 11 11 10 10 10 11 11 10 10 11 11 11 10 10 11 12 13 13 12 12 11 11 12 12 12 12 12 11 10 10 9 9 10 11 11 11 11 10 9 8 8 9 10 10 10 11 9 8 9 8 7 7 7 8 8 9
5 8 9 10 11 11 12 14 14 15 15 13 12 14 14 12 11 12 13 12 12 12 12 11 10 9 6 3 3 5 7 9 9 10 11 11 10 9 9 9 9 11 12 11 11 10 10 10 10 10 11 11 11 10 10 11 11 12 12 12 11 11 12 12 11 12 12 12 11 11 11 11 12 13 13 12 13 13 13 12 11 10 10 10 10 10 9 7 7 9 8 7 7 7 6 7 8
7 9 11 11 9 10 10 10 11 14 15 11 9 15 15 11 10 12 14 12 12 12 11 10 9 10 9 5 4 3 5 7 8 9 9 10 10 9 10 8 9 10 10 11 11 10 10 10 10 10 10 11 10 10 10 11 11 11 11 11 11 12 12 11 10 11 12 11 11 11 11 12 13 14 14 13 14 15 15 14 13 13 13 12 10 8 7 5 6 8 8 7 6 5 5 5 7
7 7 11 14 9 9 9 7 9 11 13 11 9 14 15 11 11 12 13 13 12 12 11 10 9 9 9 8 5 3 4 5 7 9 11 12 10 10 11 9 10 10 10 10 10 10 10 10 9 10 11 11 10 9 9 9 9 10 10 10 11 11 11 11 10 11 11 10 10 10 11 11 12 13 14 14 14 15 16 16 15 15 15 13 10 8 7 5 5 6 7 6 6 5 4 4 5
8 4 6 14 11 9 9 6 8 8 9 11 9 13 15 11 11 12 12 12 11 11 11 10 9 8 8 8 7 5 3 3 6 9 10 12 11 11 11 10 10 11 10 10 10 9 10 9 9 9 8 8 8 9 8 8 8 9 9 8 9 10 11 10 10 11 11 10 9 9 10 11 11 11 12 14 14 15 17 17 17 17 16 14 11 9 8 6 5 6 6 5 5 5 3 3 3
8 7 3 10 13 10 9 5 7 7 6 9 7 10 14 11 10 10 9 10 10 10 10 10 10 9 8 8 7 6 5 2 3 6 8 11 12 11 11 11 11 11 11 11 10 10 9 9 9 7 5 4 5 7 8 8 8 9 9 8 9 10 10 10 11 12 12 12 12 12 12 11 11 10 11 12 14 16 17 17 17 17 16 14 12 10 9 8 6 7 6 5 5 5 3 2 2
13 11 6 7 13 11 10 7 5 7 7 9 8 10 14 11 9 7 7 8 8 10 10 9 9 9 9 8 7 7 6 5 2 3 5 8 11 12 12 13 12 12 13 12 11 11 10 9 9 8 6 5 6 7 8 9 9 10 10 10 10 11 11 12 12 13 14 15 15 15 15 14 13 12 11 12 13 15 16 17 17 16 16 15 13 11 10 9 8 8 7 5 5 6 4 2 2
17 13 11 11 9 8 12 10 6 6 8 10 7 8 12 11 9 6 6 7 7 9 9 7 7 7 8 8 8 8 7 7 5 3 4 6 9 11 12 13 13 14 14 13 12 11 10 10 9 9 8 8 8 8 9 10 11 11 12 12 13 13 13 13 14 14 15 16 17 17 17 16 15 14 13 12 13 14 14 16 16 15 15 15 14 12 11 10 9 8 8 7 6 6 5 2 1
19 16 14 14 10 9 14 13 10 9 8 7 4 5 9 9 8 7 6 6 5 7 8 6 5 6 8 8 8 8 8 8 8 6 6 6 8 10 12 13 13 13 13 13 12 11 10 11 10 10 9 9 9 9 9 10 11 12 13 14 14 14 15 15 15 16 16 17 18 18 18 18 17 16 14 14 13 13 13 14 14 15 14 15 14 13 12 12 11 9 8 8 7 7 7 4 2
21 20 17 14 13 11 12 14 16 14 10 5 5 7 8 7 7 6 5 5 5 5 7 6 4 6 7 8 8 8 9 8 9 8 7 8 7 8 9 10 11 11 11 12 11 10 10 11 11 10 9 9 9 9 10 10 10 11 12 13 14 14 15 15 16 16 16 17 18 18 19 18 17 16 15 15 14 14 13 13 14 14 15 15 14 13 13 13 11 9 8 9 8 7 8 6 4
15 20 19 17 17 11 8 13 16 15 12 7 8 9 7 8 7 6 5 4 3 3 5 5 4 5 6 7 7 8 9 8 8 9 8 9 9 8 8 7 8 9 9 10 10 9 10 11 11 10 9 9 10 10 10 10 10 10 10 11 12 13 14 15 16 16 15 16 17 17 18 18 17 17 16 16 15 14 14 14 14 15 15 14 13 12 13 14 12 10 9 9 8 7 8 7 6
10 16 17 21 19 12 9 12 14 14 12 9 8 8 8 8 7 6 5 4 2 1 3 4 3 4 5 5 6 7 8 8 8 8 8 8 8 9 8 7 6 6 6 7 7 8 8 9 10 10 10 11 11 12 12 12 11 11 11 11 12 12 13 14 14 14 15 16 17 17 17 17 17 17 16 16 15 15 15 15 15 15 15 14 12 11 13 14 14 12 11 10 9 8 9 9 8
12 13 17 22 17 13 12 13 17 15 11 11 9 8 9 9 7 6 4 4 1 1 1 2 3 4 4 5 4 4 6 7 7 8 8 8 8 8 8 7 6 5 4 4 5 6 7 8 9 10 11 11 11 12 12 12 12 11 11 11 11 12 13 13 13 13 14 16 16 17 16 16 16 16 16 17 17 16 15 15 15 16 16 14 12 11 12 14 15 14 12 11 10 11 11 11 10
14 13 22 24 15 12 13 12 17 13 8 11 11 9 9 9 9 7 5 2 2 3 3 1 3 3 3 4 3 3 4 5 6 7 7 8 8 8 7 7 6 5 4 4 4 4 5 6 8 9 9 9 9 9 10 10 11 11 10 11 11 12 12 11 12 12 13 14 15 15 14 14 15 15 16 17 17 16 15 15 16 16 16 15 12 11 12 14 15 15 14 12 13 13 12 12 11
14 18 24 24 17 15 14 10 11 10 7 10 11 9 7 8 9 7 4 1 2 3 5 4 2 2 2 3 2 2 3 4 4 5 6 7 7 7 7 7 6 5 4 3 3 3 4 5 6 6 7 7 7 8 9 9 9 9 9 10 10 10 10 10 10 10 10 10 12 12 12 11 12 13 14 15 16 16 15 15 16 17 17 15 12 11 12 14 16 16 16 15 15 15 14 13 12
14 26 27 25 20 13 13 14 11 9 7 7 9 7 5 5 7 5 2 1 3 4 6 5 3 3 3 2 2 3 3 4 4 5 5 5 6 5 6 6 6 5 4 3 2 2 3 3 4 4 5 5 6 7 7 7 7 8 8 9 9 9 9 9 9 9 9 9 9 9 9 9 10 11 11 11 13 15 15 14 15 17 17 15 13 11 12 13 15 17 17 17 17 16 16 15 14
16 28 25 22 19 8 9 16 15 11 8 8 8 7 5 5 4 4 2 2 4 6 7 6 6 5 5 4 3 3 4 4 4 5 4 4 4 3 4 4 5 4 3 3 2 2 3 4 4 5 5 5 5 6 7 7 7 8 8 8 8 9 9 9 9 8 8 8 7 7 7 7 8 9 8 9 11 13 15 15 15 16 17 16 14 13 13 13 15 16 18 18 17 17 17 16 16
18 30 21 14 15 11 12 17 16 13 11 11 9 5 5 7 5 5 4 3 5 6 7 8 8 7 6 6 5 4 4 4 4 4 3 3 3 2 2 2 2 2 0 0 1 2 4 5 6 6 6 6 7 7 8 8 7 8 9 9 9 9 9 9 9 9 8 7 7 7 7 6 6 6 6 7 8 10 13 14 15 16 16 17 16 15 15 15 15 16 18 20 19 18 19 19 19
18 21 16 13 15 15 16 16 16 14 10 10 8 5 6 8 6 6 5 5 6 6 8 8 8 8 8 8 8 7 6 6 5 5 4 3 1 1 1 1 1 2 3 4 5 5 5 5 5 6 6 7 8 8 8 8 9 10 10 11 11 11 10 10 10 10 9 9 8 8 8 7 7 7 6 6 6 7 9 11 13 14 15 17 17 16 16 16 16 18 19 20 20 20 20 20 19
16 9 16 19 16 15 13 12 13 12 11 11 9 7 7 8 6 6 7 6 5 6 8 9 8 8 9 9 9 9 9 9 8 6 4 3 2 2 3 3 3 5 7 8 8 7 7 8 8 9 8 8 9 9 9 10 10 11 11 11 11 11 11 10 10 10 10 10 10 9 9 9 9 9 8 8 8 7 7 8 10 11 13 15 16 17 18 18 18 18 20 20 21 21 20 19 19
15 8 16 18 12 8 9 14 15 11 11 13 12 8 4 4 4 5 6 4 6 7 8 8 9 9 9 9 8 8 10 10 9 7 5 4 3 2 3 4 5 7 9 10 10 9 9 10 10 9 9 8 9 9 9 10 9 9 9 9 9 10 10 10 11 11 11 11 11 10 10 10 11 10 10 10 10 9 9 9 8 9 10 12 14 15 17 19 19 19 20 21 21 21 21 21 21
8 13 16 15 11 9 12 16 14 10 9 10 14 13 4 3 5 6 5 4 9 11 10 8 9 9 8 9 9 8 9 8 7 7 6 5 3 3 4 5 7 9 9 10 9 9 8 8 8 8 8 8 8 7 8 8 8 9 9 9 9 9 10 10 11 11 11 11 11 11 11 11 11 11 11 11 12 11 11 11 10 10 10 10 11 12 14 17 19 20 20 21 21 22 22 22 22
19 23 21 17 16 17 16 15 12 8 6 8 13 14 6 2 6 7 6 6 9 10 7 6 9 9 8 9 11 8 7 6 6 6 6 5 4 3 4 6 9 10 9 8 8 7 7 7 7 7 7 7 7 8 9 9 9 10 10 10 10 10 10 10 10 11 11 11 12 12 12 12 12 11 11 12 12 13 13 13 12 12 12 12 12 13 13 14 16 19 20 21 21 21 22 23 23
20 20 24 22 18 18 16 12 10 5 2 7 12 11 7 4 6 7 7 7 9 7 3 5 7 9 9 11 10 7 6 5 4 5 6 5 4 4 6 7 9 9 8 8 7 6 6 5 6 6 7 8 8 9 9 9 9 9 10 10 10 10 10 10 10 10 11 11 12 12 12 12 12 12 12 13 13 14 14 15 15 15 15 15 15 14 14 14 15 17 18 19 19 20 22 23 24
19 23 29 24 13 11 9 5 5 3 2 8 9 4 4 6 8 9 8 8 9 5 1 4 6 9 12 12 9 5 3 2 3 4 6 6 5 6 7 9 10 8 5 6 7 6 5 5 6 6 7 8 8 9 9 8 8 8 8 9 9 9 9 9 9 10 10 10 11 11 11 12 12 12 12 13 14 15 16 17 17 17 17 17 17 17 16 15 15 16 17 17 18 20 23 24 24
18 28 30 20 10 5 3 2 1 1 3 8 8 1 2 5 6 6 5 5 7 6 4 3 7 12 11 9 7 5 3 1 1 1 3 6 7 7 8 9 9 7 5 4 5 6 6 5 6 6 7 7 7 7 7 7 7 8 8 8 8 9 9 9 10 10 10 11 11 11 12 12 12 13 13 13 14 15 16 16 17 17 17 17 17 18 18 17 16 17 17 17 18 21 23 25 25
15 17 14 11 10 6 3 3 4 4 4 7 7 3 2 4 5 5 3 5 7 7 6 6 9 13 9 7 9 8 5 6 4 1 2 4 6 8 9 9 8 7 6 4 4 5 6 5 6 7 7 7 7 7 8 8 8 8 9 9 9 10 10 10 10 11 11 11 11 12 12 13 13 13 14 14 15 15 15 15 16 17 18 18 18 18 18 18 18 18 17 17 18 20 22 24 24
13 12 11 8 7 5 6 6 8 9 6 4 6 4 5 7 8 8 7 8 9 8 7 9 11 13 11 11 12 10 8 8 7 6 4 5 11 13 11 10 9 8 6 5 4 5 6 6 6 7 7 8 8 8 9 9 9 9 10 10 10 11 11 11 11 11 11 11 11 12 12 13 13 13 14 15 16 16 15 14 15 16 17 18 18 19 19 19 19 19 19 18 17 19 22 24 25
12 14 13 6 5 6 9 9 8 10 5 2 5 4 6 9 9 11 12 11 9 9 8 10 14 15 15 14 12 10 10 9 8 7 7 8 14 16 12 9 9 9 8 7 5 5 6 7 7 8 8 8 9 9 9 10 10 10 11 11 11 11 12 12 12 13 13 13 13 13 13 13 14 14 15 16 16 15 15 15 15 15 16 17 18 19 19 19 19 19 20 20 19 19 21 23 25
13 16 16 6 5 5 6 7 6 5 3 2 6 6 8 9 8 11 15 14 11 10 10 13 16 17 16 14 11 10 11 10 9 9 9 11 15 15 9 7 8 8 8 7 6 6 7 7 8 9 9 9 10 10 10 11 11 11 12 12 12 13 13 13 14 14 14 14 15 15 15 15 15 16 16 16 16 15 15 15 16 16 17 18 18 19 19 19 20 20 21 21 21 21 22 22 24
15 13 14 10 9 4 4 2 5 3 1 2 6 8 11 14 13 11 14 15 12 12 15 18 19 18 17 15 13 14 13 10 10 11 11 13 14 12 8 8 9 8 7 6 5 5 6 6 8 10 10 10 10 10 11 11 12 12 12 13 13 14 14 15 15 15 15 15 15 15 15 16 16 16 16 17 17 17 16 16 17 18 18 18 18 18 19 20 21 22 22 23 23 23 23 23 24
17 11 11 12 9 1 9 9 7 7 3 2 3 4 9 14 14 10 10 11 12 14 18 19 19 18 17 16 16 16 13 11 11 12 13 14 13 10 7 10 11 9 10 10 10 9 8 6 6 8 9 9 9 10 10 11 11 12 12 13 13 14 14 15 15 15 16 16 16 16 16 16 16 16 16 17 17 18 18 18 19 19 19 18 18 18 19 20 20 21 22 23 24 24 24 25 25
21 15 14 12 6 5 9 3 5 7 5 4 2 2 8 8 8 9 9 9 11 13 14 16 17 18 17 17 18 16 13 13 14 14 14 13 11 8 8 11 12 12 13 15 16 15 13 10 8 7 7 8 8 9 10 10 10 11 11 12 13 14 14 14 15 15 15 16 16 16 16 16 16 16 16 16 17 18 18 19 19 19 19 19 19 19 20 21 21 20 20 22 24 25 25 26 27
25 20 15 9 6 6 11 4 5 6 5 8 6 3 7 5 5 9 10 10 12 12 12 14 16 17 18 17 17 15 14 15 15 15 14 12 8 7 9 11 12 13 14 16 17 18 16 14 12 10 8 8 8 9 9 9 10 10 11 12 12 13 13 14 14 15 15 16 16 16 16 15 15 16 16 16 17 17 18 19 19 20 20 20 21 21 22 22 22 20 20 21 23 24 25 26 26
Wind_Direction
48 47 44 46 45 44 38 46 68 74 80 71 73 96 106 106 107 118 128 120 113 114 109 116 116 129 152 162 171 176 161 159 150 149 160 158 158 155 150 148 150 152 150 149 145 143 146 149 147 143 141 139 137 134 133 130 125 120 118 115 112 108 103 97 92 89 87 84 81 79 76 73 73 73 72 73 73 74 75 81 88 91 93 96 98 99 97 95 95 100 110 121 131 131 133 131 134
46 46 44 48 50 52 46 52 68 79 85 72 74 100 108 113 119 125 134 134 126 121 118 123 126 131 139 150 161 172 164 164 170 154 157 159 155 151 150 148 148 151 151 150 147 146 147 149 148 144 142 140 138 136 134 130 125 122 119 116 113 109 103 98 96 92 87 83 79 75 71 69 66 66 66 67 68 69 71 78 85 89 93 94 95 97 97 94 93 93 98 106 119 126 129 129 137
47 47 46 49 49 51 48 49 59 78 84 76 80 97 110 116 120 122 132 138 130 124 133 135 144 143 136 139 148 162 163 167 184 172 159 158 154 151 150 147 147 151 152 152 151 150 149 150 149 146 144 142 141 139 135 131 126 123 120 117 114 110 104 101 99 94 88 84 79 73 68 65 63 61 60 60 62 65 69 76 85 90 91 93 94 94 93 87 82 81 82 89 101 116 127 129 133
47 49 47 47 46 46 46 45 44 56 60 70 87 96 109 113 114 118 128 136 133 128 136 138 148 145 136 157 155 159 156 151 164 167 157 149 150 152 149 148 147 151 153 153 153 153 152 152 152 148 146 145 144 141 136 132 127 124 121 119 117 113 108 105 101 95 91 86 80 73 66 62 61 60 59 57 56 59 64 73 84 89 87 88 91 88 82 72 65 64 69 82 93 107 123 128 127
49 48 47 47 44 44 47 46 43 45 41 53 84 89 100 102 105 115 124 130 134 133 138 148 144 134 142 171 164 165 153 138 143 159 159 145 146 153 148 147 146 150 153 153 155 155 154 154 154 151 150 148 146 144 140 136 131 127 123 121 120 116 112 108 102 95 91 87 81 73 64 59 58 57 57 56 54 52 54 64 75 81 82 83 84 79 71 60 53 53 61 78 92 102 118 126 127
50 48 47 46 45 47 51 50 47 48 44 52 68 69 90 92 96 112 119 121 131 133 140 162 139 132 150 150 157 166 151 138 142 153 158 143 143 150 146 146 146 150 152 154 156 157 156 155 156 154 152 152 150 148 146 143 138 132 127 125 124 121 116 109 102 95 90 86 78 70 62 57 54 53 53 53 52 50 51 56 64 70 79 82 80 74 65 55 49 48 56 73 86 93 105 126 133
49 50 50 50 51 50 52 51 47 51 54 55 59 54 71 88 98 111 119 123 131 136 143 167 151 147 154 144 151 156 145 138 139 144 151 143 142 148 145 146 148 150 152 155 158 158 158 158 158 157 155 156 155 154 152 149 146 140 134 131 129 127 122 112 104 96 90 83 74 67 62 57 53 50 48 48 49 49 51 54 58 63 74 83 84 77 63 53 49 48 55 70 81 84 92 119 137
49 50 53 58 58 49 46 50 50 55 64 62 64 61 73 100 109 110 127 137 136 137 145 161 164 165 151 143 140 137 140 138 138 143 147 143 143 147 145 146 150 151 153 157 159 159 161 161 161 160 159 159 160 159 157 154 152 148 144 140 136 134 127 116 107 97 88 78 71 66 60 56 51 47 44 42 44 45 47 50 52 56 65 80 89 85 68 55 51 48 50 63 78 85 89 107 145
49 50 55 62 54 46 45 50 54 58 70 72 75 74 83 113 125 117 136 149 145 143 151 154 167 177 155 143 132 131 142 140 141 144 144 142 142 147 146 147 150 152 155 158 161 161 163 163 163 163 162 162 162 162 160 157 156 154 151 147 142 139 133 123 111 96 84 73 66 63 57 52 46 42 41 38 41 41 40 43 44 47 51 64 83 89 78 61 55 50 47 51 70 87 95 103 146
49 50 57 58 46 49 51 51 58 61 71 78 80 78 85 111 135 135 137 158 161 156 164 158 169 183 159 140 130 135 148 146 146 145 144 142 143 151 149 147 149 152 156 159 161 162 164 166 165 166 164 163 163 163 161 160 158 156 154 151 146 144 139 127 113 96 81 69 59 55 51 45 40 37 36 35 37 35 34 37 38 40 43 51 71 84 83 71 59 52 48 46 52 77 97 111 146
49 51 55 53 47 55 57 55 61 63 67 76 79 80 90 108 124 126 127 154 165 164 178 171 174 178 153 138 141 144 149 150 150 148 147 142 145 153 151 150 150 152 157 160 163 164 165 168 168 168 167 165 164 164 163 161 159 157 154 152 149 145 137 126 114 97 80 65 51 46 42 37 33 31 29 29 30 28 29 34 37 39 40 48 66 74 76 72 61 47 43 46 45 51 80 109 146
44 50 52 47 50 57 56 54 59 64 66 72 79 80 96 110 114 121 129 151 156 160 174 178 185 177 149 145 159 154 153 156 155 158 153 143 148 155 153 155 153 154 158 161 166 166 167 169 171 170 170 169 166 166 165 163 160 157 154 151 149 143 134 127 115 97 81 63 48 40 37 32 28 26 22 21 22 22 25 33 37 38 39 45 61 67 67 68 62 46 36 39 45 45 58 91 127
40 47 47 41 51 53 48 49 52 60 67 71 83 85 91 107 120 130 142 159 157 162 174 186 191 177 153 156 163 154 157 164 165 171 161 146 152 157 156 159 156 157 159 162 168 169 169 170 173 173 173 173 171 169 168 166 163 159 155 150 147 138 131 126 116 98 81 63 45 36 34 29 25 23 19 18 19 19 23 31 34 34 36 40 53 62 62 66 65 50 38 35 40 43 44 63 95
41 38 36 38 50 47 39 42 43 48 62 70 82 87 82 95 121 125 130 144 151 176 185 188 191 181 165 166 168 159 161 173 178 180 165 149 157 160 158 162 160 160 160 163 169 171 172 170 174 176 176 177 175 174 173 171 167 162 158 152 147 138 133 127 118 99 79 64 42 32 29 24 20 19 19 21 19 18 20 27 30 30 32 35 45 56 56 61 66 55 44 40 37 34 37 46 68
32 26 17 36 48 42 37 35 36 42 56 64 72 84 85 91 104 104 105 113 133 185 193 185 184 183 179 176 175 169 168 179 183 181 167 153 161 163 159 165 165 164 164 165 169 172 176 173 175 177 178 180 181 180 178 176 171 166 164 158 153 146 143 136 126 101 76 60 39 28 22 19 14 14 19 23 19 17 19 24 28 29 29 33 44 52 49 52 60 54 46 42 36 28 33 41 49
32 31 12 43 50 39 36 33 35 44 48 55 65 79 87 90 96 97 102 106 119 168 196 195 187 181 183 181 175 170 173 181 183 180 173 163 164 166 161 166 171 170 167 167 170 173 177 177 177 178 179 182 185 185 184 183 178 174 173 169 166 164 162 159 150 108 62 46 34 21 14 12 8 10 15 19 17 15 18 23 27 28 26 32 44 45 41 46 53 49 43 38 33 29 30 38 44
36 283 272 46 52 37 34 35 38 45 46 54 66 78 81 83 90 89 98 104 109 152 202 207 207 196 180 178 176 175 179 184 186 185 181 172 167 169 166 169 176 175 170 169 171 172 178 181 181 181 180 183 187 189 190 190 187 184 182 181 181 182 186 190 194 208 18 19 16 8 6 3 358 6 10 10 9 10 18 23 28 28 22 25 34 34 36 46 52 45 37 31 28 26 27 36 46
151 213 199 50 49 38 36 38 42 49 51 59 68 82 87 78 81 77 84 96 99 130 189 185 196 192 153 171 189 190 189 190 194 193 186 173 166 172 170 172 177 176 175 174 173 172 176 183 185 186 184 185 189 192 194 197 195 192 191 193 195 196 203 214 230 265 315 341 350 352 353 350 347 356 3 359 357 4 18 24 30 27 18 19 24 29 41 47 50 43 34 28 24 18 19 28 46
176 193 66 54 49 46 45 43 46 51 49 57 69 84 91 79 77 76 79 91 100 105 98 100 95 138 160 170 189 193 194 198 201 198 190 174 166 172 170 172 178 175 177 179 179 175 173 181 187 191 191 190 192 196 199 202 203 201 201 204 208 211 216 227 244 267 295 316 326 334 337 336 337 344 352 351 349 358 17 27 35 26 16 19 21 28 37 38 42 39 33 30 24 18 16 23 42
174 210 50 57 55 52 52 50 50 50 47 55 71 81 86 85 83 82 84 83 90 88 69 84 89 105 160 170 183 193 196 201 202 199 196 185 173 173 171 172 179 175 175 179 183 181 174 176 184 191 195 195 196 200 203 206 209 210 210 213 218 225 230 239 251 267 286 301 311 319 324 325 326 334 343 344 345 351 0 25 42 30 20 22 20 23 24 21 29 33 30 28 24 23 21 23 39
107 58 49 55 54 52 55 58 58 54 53 62 73 80 85 88 87 83 82 74 77 82 65 73 91 101 151 175 182 190 196 203 203 197 198 196 182 174 176 178 181 179 178 183 185 184 179 176 180 189 194 197 200 203 207 211 214 216 219 222 227 233 239 246 257 268 282 292 302 310 316 318 322 332 338 335 337 335 336 8 39 34 24 22 20 19 17 14 19 24 25 25 25 27 26 22 30
99 67 55 49 46 53 63 69 67 63 65 75 79 79 82 85 88 81 77 77 78 84 76 68 88 102 145 177 179 187 196 201 204 199 197 201 192 180 187 190 188 187 183 187 189 186 183 182 182 187 193 197 201 205 210 214 218 221 224 229 234 238 243 249 258 267 278 287 296 303 309 316 321 329 332 329 327 321 324 351 19 26 19 17 20 19 16 12 11 14 19 26 27 29 28 21 21
87 83 81 60 54 60 75 82 77 76 76 81 82 78 78 77 80 76 72 81 81 80 74 63 75 95 141 163 168 191 198 194 198 206 204 204 198 186 192 199 198 197 191 192 196 191 188 189 188 190 194 196 204 209 213 217 220 224 228 232 238 241 244 247 256 266 273 282 290 297 302 309 316 319 321 322 317 313 324 346 360 9 9 11 19 19 11 2 359 4 11 23 29 29 27 20 18
20 90 107 87 77 69 83 90 84 91 84 80 79 77 80 73 73 72 66 70 74 76 70 59 66 79 108 136 157 185 195 195 198 204 202 200 197 187 191 197 198 202 201 198 200 201 198 198 196 197 199 198 206 213 216 221 222 226 229 234 240 242 244 246 253 261 267 275 282 289 293 298 305 305 307 312 312 316 325 332 340 351 358 3 10 8 359 351 349 353 3 17 24 27 27 21 17
22 87 128 119 98 82 91 97 91 99 90 82 81 78 82 73 69 69 63 60 63 69 66 61 63 73 80 112 162 185 190 198 204 199 194 195 198 193 195 194 191 197 200 200 204 209 205 203 205 206 206 202 205 211 216 224 228 232 237 239 244 247 248 248 250 254 260 268 274 281 287 293 297 297 302 312 317 323 327 326 333 342 348 352 353 351 350 349 346 345 355 8 15 25 29 22 15
88 94 129 124 104 92 99 102 96 98 91 86 82 77 77 71 69 69 66 60 58 63 64 62 59 67 78 102 164 198 201 206 214 204 198 209 214 212 213 199 191 200 199 200 206 211 209 206 209 212 212 210 207 207 213 222 229 238 243 244 247 252 253 254 254 256 263 271 278 284 287 292 295 298 306 315 319 321 322 325 331 336 337 340 340 339 344 350 342 338 345 355 4 18 25 17 11
124 114 119 119 104 97 107 110 101 98 98 96 76 75 75 71 72 69 69 65 61 63 64 66 58 61 68 79 121 179 211 217 222 217 215 225 228 224 227 211 200 214 211 207 209 209 214 214 213 215 217 217 213 208 211 220 228 235 240 242 246 252 257 262 261 263 268 271 275 280 283 289 295 301 306 310 313 314 315 319 322 324 325 326 327 325 330 338 335 331 334 338 341 0 18 7 4
166 138 120 122 111 104 113 115 107 99 104 104 74 75 79 75 74 68 69 65 60 62 62 65 60 60 67 73 90 128 185 209 219 217 216 222 226 224 226 216 209 222 225 222 217 206 209 217 222 226 225 222 220 217 215 219 227 232 233 235 241 248 256 260 261 263 266 265 261 265 273 281 289 295 300 302 306 308 309 311 311 311 314 317 315 308 308 310 316 317 318 321 318 334 6 4 359
183 189 129 127 123 116 117 119 120 110 106 106 84 78 83 80 75 70 71 67 61 62 63 67 64 63 65 68 71 77 119 176 202 209 212 214 216 218 221 219 215 220 226 231 231 217 204 208 220 230 232 225 225 231 231 229 232 238 238 235 237 245 255 259 263 267 270 271 267 265 267 271 275 280 289 296 300 301 301 303 303 304 307 309 305 293 291 296 298 298 299 305 305 307 332 358 1
221 216 210 139 134 129 129 137 134 133 117 103 90 86 93 92 81 72 73 73 70 69 67 67 67 66 65 64 64 60 62 83 178 202 210 209 208 210 215 218 215 216 223 229 234 232 218 208 208 211 216 220 227 238 241 239 236 244 251 249 247 252 261 268 272 276 278 280 279 277 274 272 272 272 275 282 288 291 291 294 296 298 300 302 300 286 280 287 285 282 283 288 295 291 297 349 4
246 211 214 163 144 131 135 156 160 155 137 107 96 97 103 104 93 79 72 75 76 75 69 62 62 64 65 67 67 67 62 55 71 179 198 204 203 202 206 209 211 213 218 224 232 240 234 224 220 214 213 219 227 235 240 244 245 250 256 256 258 260 264 268 270 274 276 277 278 278 278 277 276 273 269 268 273 278 282 285 286 288 289 293 293 282 273 277 276 273 272 270 278 278 276 315 336
240 214 176 162 161 144 143 161 182 177 146 116 103 101 107 107 101 92 82 78 77 80 76 62 60 61 62 63 63 67 70 66 69 109 156 178 187 191 199 204 206 210 213 218 228 239 240 236 236 235 234 233 235 238 239 245 249 253 255 256 259 261 263 263 264 265 267 270 273 274 275 276 276 274 268 263 263 266 271 275 275 275 276 282 286 280 269 268 268 265 263 262 262 262 259 264 290
229 231 188 172 188 170 151 162 177 189 170 126 114 109 104 105 102 98 97 91 83 83 82 71 65 67 64 63 63 64 68 72 79 89 111 137 162 177 189 197 202 207 210 216 225 232 239 243 245 244 244 247 250 251 250 251 253 253 254 256 258 260 263 263 261 260 261 265 268 269 269 269 271 271 267 263 261 262 264 266 266 265 266 272 279 278 270 265 262 257 255 256 253 257 257 239 229
213 224 206 186 191 177 159 166 169 182 188 149 134 126 100 99 94 85 92 92 93 86 84 84 79 79 72 66 67 68 69 70 77 85 96 111 127 152 173 186 192 196 201 212 223 224 229 240 245 244 246 253 258 260 260 259 257 254 252 252 256 259 262 263 261 260 260 261 262 263 262 263 264 265 264 263 261 259 257 255 255 258 261 266 271 274 271 265 259 251 248 248 246 254 257 241 228
206 220 213 189 189 190 173 168 158 164 176 162 144 133 108 102 85 68 63 59 77 89 95 107 98 90 84 76 75 72 73 71 75 86 92 100 106 116 134 156 172 183 191 202 217 221 221 229 237 241 246 253 257 258 257 255 255 253 251 252 255 258 260 260 261 260 260 260 262 263 262 263 262 260 260 259 256 252 251 249 249 252 256 259 264 270 272 266 256 245 240 240 237 242 247 242 239
273 263 226 184 181 188 176 162 146 142 145 138 133 123 109 105 90 78 69 50 56 80 96 116 115 103 97 89 84 79 79 76 76 85 90 96 100 102 109 117 133 155 173 190 209 220 223 226 234 240 245 250 253 256 255 255 257 257 256 258 260 261 261 261 263 264 264 265 268 269 268 265 262 260 256 252 248 246 247 247 248 249 249 252 257 263 268 265 255 244 239 234 228 229 233 234 235
284 269 211 177 175 175 169 160 145 137 125 123 127 119 115 120 122 121 94 52 27 242 171 131 122 109 104 99 93 91 91 88 89 94 95 98 101 101 105 108 113 127 141 164 189 208 223 229 235 239 243 248 250 254 257 258 260 261 262 262 262 261 262 263 266 268 269 271 273 274 272 267 262 260 255 248 244 243 244 245 245 244 244 247 250 255 261 261 255 246 240 237 230 225 225 230 231
270 231 186 173 179 166 160 160 146 143 132 135 142 135 131 137 142 142 125 55 345 254 236 205 127 115 122 121 117 121 106 101 102 102 101 103 107 109 109 111 115 124 132 147 168 186 208 218 227 230 233 239 242 247 253 254 256 260 262 262 259 259 261 263 266 270 273 275 275 275 273 266 260 259 257 251 246 244 243 243 242 240 240 243 245 247 251 253 252 246 241 239 235 228 226 230 232
255 203 181 173 172 151 152 166 153 149 143 145 151 145 150 151 146 146 144 157 297 256 250 248 183 157 170 141 140 181 137 116 110 104 110 112 111 114 114 114 118 126 129 137 164 187 202 209 218 224 227 232 238 243 247 249 251 253 255 257 256 256 259 262 266 272 276 277 278 276 271 263 257 258 260 254 247 244 242 241 240 239 240 242 242 242 242 244 246 246 243 239 235 230 226 225 228
222 183 179 176 169 155 165 174 168 166 153 158 163 152 166 162 144 149 158 240 261 252 253 245 222 225 224 173 153 201 190 158 137 123 125 122 116 119 123 121 123 131 131 124 147 197 207 211 217 223 225 228 235 239 241 242 244 247 249 250 252 253 254 256 261 267 271 274 278 279 274 264 255 254 259 254 245 242 241 240 237 235 236 240 241 238 237 239 242 244 243 239 235 232 227 222 225
232 189 186 180 171 168 174 164 158 167 160 160 165 153 166 164 149 166 176 263 265 259 255 243 229 226 229 206 173 187 193 180 166 153 148 131 130 137 132 128 129 135 140 130 134 203 210 221 230 230 225 221 229 233 236 239 239 247 250 249 253 255 253 254 259 266 268 269 273 279 279 271 259 253 253 251 244 242 243 244 241 237 235 237 239 236 235 236 238 241 242 240 235 232 232 228 226
206 191 205 196 170 159 152 147 147 163 166 159 158 147 154 163 180 200 203 234 246 255 254 246 238 225 224 217 200 210 213 203 197 185 176 156 151 151 125 138 141 122 157 207 302 261 228 229 232 232 229 233 243 239 236 240 242 251 256 259 265 264 260 260 264 267 268 268 269 275 277 275 272 265 258 254 249 247 247 247 246 244 240 238 238 237 237 238 239 240 242 242 238 232 233 232 227
188 186 220 212 173 152 142 141 147 159 163 153 146 120 135 169 202 220 213 217 229 251 254 245 245 236 230 229 224 230 233 225 224 218 198 178 179 240 276 270 289 334 310 288 295 283 254 246 245 249 244 244 254 250 241 246 252 258 260 263 267 264 260 260 264 266 267 267 266 268 271 274 278 277 269 258 252 251 252 251 249 246 244 241 240 238 239 240 240 240 240 242 242 237 235 235 232
230 222 214 192 162 143 139 143 150 152 146 145 145 117 130 176 206 203 197 210 225 235 239 240 252 246 232 238 240 238 241 241 239 235 221 210 231 257 262 272 294 309 302 291 291 283 270 265 260 263 258 250 258 260 256 256 258 259 259 262 264 262 261 262 264 265 265 265 262 262 263 266 271 273 273 266 258 254 252 252 250 246 244 244 244 242 241 241 240 240 239 240 241 240 237 236 236
246 235 194 172 139 135 151 153 152 149 146 155 164 152 145 206 203 163 173 237 272 262 253 260 277 270 247 242 240 235 237 243 251 250 239 230 233 246 260 280 298 302 301 296 291 282 272 267 263 265 264 258 260 260 258 258 261 263 263 264 263 261 261 262 263 262 261 261 261 260 258 260 262 262 264 263 261 260 256 254 252 249 246 247 250 251 250 248 243 240 239 239 241 240 236 233 232
169 150 164 156 148 152 149 153 153 150 160 169 172 166 161 244 216 171 156 227 275 280 272 268 267 257 251 246 237 239 240 245 263 255 232 216 213 238 273 295 307 307 302 295 289 283 274 266 263 262 260 260 259 260 262 263 268 271 270 271 268 265 263 263 262 259 257 258 259 259 259 261 261 258 257 258 258 257 256 256 256 255 254 251 252 254 255 253 247 241 239 239 240 240 236 231 228
147 149 154 151 161 158 152 163 162 157 181 176 172 176 177 258 237 216 201 218 255 273 276 273 252 226 222 233 230 239 244 241 256 245 224 217 219 249 282 299 309 309 304 295 288 284 277 266 260 257 257 259 261 265 269 271 273 274 274 275 274 272 269 268 266 262 261 261 261 261 262 262 262 260 259 257 257 256 255 254 254 256 258 257 256 254 255 255 251 246 243 242 243 242 238 233 228
160 166 161 151 155 161 163 177 173 171 226 169 171 186 197 230 259 257 251 236 241 258 283 295 261 215 209 225 225 232 241 251 270 248 232 234 245 272 292 304 310 310 302 295 291 284 276 267 261 261 262 264 267 268 269 269 270 272 273 274 274 274 273 272 271 269 268 268 268 269 269 268 267 265 263 260 259 257 255 254 252 253 255 256 258 257 256 256 255 253 251 249 249 247 243 238 234
170 173 163 149 144 166 179 196 192 187 150 164 177 195 220 242 270 284 276 246 235 234 245 281 251 217 215 221 220 221 230 312 312 246 239 256 269 283 298 308 310 311 301 288 290 286 277 267 259 259 261 263 265 267 268 267 265 264 264 263 265 267 269 270 271 271 272 273 275 276 276 276 274 271 269 264 262 260 257 254 253 253 254 255 255 255 255 256 259 261 258 253 250 249 246 241 238
181 172 167 158 145 158 203 221 204 186 141 162 176 199 291 254 262 278 275 239 225 208 189 211 227 227 227 217 210 210 190 152 126 165 258 269 267 275 297 311 310 309 310 291 279 278 276 272 268 267 267 267 267 266 269 270 268 268 268 267 267 267 268 269 269 269 271 272 273 274 275 275 274 274 272 269 267 266 263 259 256 253 252 253 254 253 253 255 259 263 263 256 249 247 246 242 239
190 182 195 198 179 167 197 190 155 158 149 153 167 187 238 227 239 246 226 207 205 198 188 180 210 229 229 210 212 218 208 199 204 246 314 297 298 302 310 323 320 311 313 303 280 274 275 273 271 273 274 275 276 274 274 275 276 278 278 278 278 277 277 275 274 274 272 271 271 270 271 270 270 271 272 273 272 270 268 266 263 257 251 249 251 253 253 253 255 258 261 261 255 249 246 243 241
210 228 260 247 207 168 123 121 138 145 137 158 184 197 209 222 245 245 238 231 209 195 196 191 202 215 212 214 222 224 227 227 238 262 288 319 329 329 327 331 331 328 328 315 291 278 278 277 273 272 274 276 277 278 280 280 280 280 279 278 277 275 275 275 275 275 274 272 271 270 271 272 271 269 267 266 266 267 270 269 266 261 255 251 250 251 252 254 256 256 257 259 258 253 248 244 243
212 226 243 248 229 186 124 112 135 137 119 209 217 215 219 228 243 241 246 253 225 206 211 201 199 205 209 220 229 231 244 255 259 268 276 296 320 329 329 331 332 331 334 328 318 306 290 283 279 277 279 279 279 280 280 280 279 279 278 277 275 273 271 270 269 269 269 268 267 267 267 268 269 269 267 265 265 267 268 266 263 260 257 255 252 251 251 253 255 256 256 256 256 255 251 247 244
212 216 227 213 156 153 113 116 141 126 83 237 229 234 231 223 227 233 239 245 230 212 206 196 197 207 212 218 228 239 255 268 270 276 279 289 314 322 319 333 337 332 341 346 340 328 313 300 290 287 285 281 280 279 278 277 277 277 278 277 276 275 273 272 270 268 266 265 264 264 262 262 263 264 266 268 268 267 264 263 263 260 255 254 254 254 254 253 253 254 254 254 254 254 253 250 248
219 217 216 190 140 84 346 215 164 128 53 253 236 239 237 227 222 229 236 238 228 204 194 193 200 212 214 213 224 239 251 263 270 278 280 289 310 317 313 332 337 339 359 13 10 349 332 313 293 288 287 282 279 278 275 275 274 273 274 273 272 272 272 272 272 270 270 268 266 265 263 261 261 261 263 265 266 266 264 262 259 258 257 257 257 257 256 254 253 252 251 252 251 251 252 252 251
215 217 200 181 149 90 276 242 182 155 158 219 237 253 250 233 223 228 238 238 228 208 200 199 203 213 219 218 227 239 248 257 265 271 273 284 301 310 320 332 332 341 359 10 13 7 355 330 297 286 284 279 276 274 271 271 271 270 270 270 269 269 268 269 269 270 271 271 270 269 268 267 265 264 264 263 265 266 265 263 261 260 262 263 262 260 258 257 256 254 252 250 248 249 251 252 251
204 200 179 158 135 211 233 227 144 158 159 148 136 268 253 228 213 224 236 237 231 224 217 208 204 211 222 226 231 240 247 250 257 264 269 279 292 306 326 331 332 346 1 5 2 355 348 339 326 312 294 281 276 272 270 270 270 271 272 271 271 269 268 269 268 269 269 269 269 268 269 269 268 267 266 265 264 264 265 266 266 266 265 264 263 260 258 258 258 258 255 250 248 248 250 252 252
207 198 171 115 44 211 195 129 123 166 160 158 158 229 241 213 196 219 232 237 231 228 223 214 208 213 222 228 234 243 246 248 255 261 266 277 294 320 330 330 337 351 0 0 354 347 341 335 331 325 311 295 284 276 274 274 274 277 277 276 276 275 274 273 271 271 271 270 269 267 267 266 266 266 267 267 266 265 265 265 265 266 264 261 260 259 259 260 260 259 256 251 249 249 251 253 253